Weather History for KOVS - May, 2013

Change the Weather History Date:

Wednesday, May 22, 2013

  Actual Average (KPDC) Record (KPDC)
Temperature  
Mean Temperature 63 °F -  
Max Temperature 73 °F 75 °F 91 °F (1962)
Min Temperature 55 °F 51 °F 32 °F (1967)
Degree Days  
Heating Degree Days 2    
Growing Degree Days 13 (Base 50)    
Moisture  
Dew Point 57 °F    
Average Humidity 88    
Maximum Humidity 100    
Minimum Humidity 55    
Precipitation  
Precipitation 0.38 in - - ()
Sea Level Pressure  
Sea Level Pressure 29.68 in    
Wind  
Wind Speed 1 mph (West)    
Max Wind Speed 8 mph    
Max Gust Speed -    
Visibility 8 miles    
Events Fog , Rain    
Averages and records for this station are not official NWS values.
T = Trace of Precipitation, MM = Missing Value Source: NWS Daily Summary

Daily Weather History Graph

Daily Weather History Graph

Search for Another Location

Airport or City:

Trip Planner

Search our weather history database for the weather conditions in past years. The results will help you decide how hot, cold, wet, or windy it might be!

Date:

Astronomy

May. 22, 2013 Rise Set
Actual Time 5:32 AM CDT 8:27 PM CDT
Civil Twilight 4:58 AM CDT 9:00 PM CDT
Nautical Twilight 4:16 AM CDT 9:43 PM CDT
Astronomical Twilight 3:26 AM CDT 10:33 PM CDT
Moon 5:46 PM CDT (5/22) 3:41 AM CDT (5/22)
Length of Visible Light 16h 02m
Length of Day
14h 54m
Waxing Gibbous, 91% of the Moon is Illuminated
May 22
Waxing Gibbous
May 24
Full
May 31
Last Quarter
Jun 8
New
Jun 16
First Quarter

Hourly Weather History & Observations

Time (CDT) Temp. Dew Point Humidity Pressure Visibility Wind Dir Wind Speed Gust Speed Precip Events Conditions
12:53 AM 59.0 °F 55.9 °F 90% 29.68 in 10.0 mi Calm Calm - N/A   Overcast
1:53 AM 59.0 °F 55.9 °F 90% 29.67 in 10.0 mi Calm Calm - N/A   Overcast
2:53 AM 55.9 °F 55.0 °F 97% 29.66 in 10.0 mi Calm Calm - N/A   Scattered Clouds
3:12 AM 55.4 °F 55.4 °F 100% 29.66 in 1.2 mi Calm Calm - N/A   Mostly Cloudy
3:19 AM 55.4 °F 53.6 °F 94% 29.65 in 0.5 mi Calm Calm - N/A Fog Fog
3:26 AM 55.4 °F 53.6 °F 94% 29.65 in 1.2 mi Calm Calm - N/A   Scattered Clouds
3:28 AM 55.4 °F 53.6 °F 94% 29.65 in 3.0 mi Calm Calm - N/A   Scattered Clouds
3:50 AM 55.4 °F 53.6 °F 94% 29.65 in 1.5 mi Calm Calm - N/A   Mostly Cloudy
3:53 AM 55.9 °F 54.0 °F 93% 29.65 in 1.5 mi Calm Calm - N/A   Mostly Cloudy
4:00 AM 55.4 °F 55.4 °F 100% 29.65 in 4.0 mi Calm Calm - N/A   Mostly Cloudy
4:53 AM 57.0 °F 55.0 °F 93% 29.65 in 10.0 mi Calm Calm - N/A   Overcast
5:53 AM 57.9 °F 55.9 °F 93% 29.65 in 10.0 mi Calm Calm - N/A   Overcast
6:46 AM 59.0 °F 57.2 °F 94% 29.65 in 10.0 mi Calm Calm - N/A   Overcast
6:53 AM 59.0 °F 57.0 °F 93% 29.65 in 10.0 mi Calm Calm - N/A   Overcast
7:53 AM 60.1 °F 57.0 °F 90% 29.63 in 10.0 mi Calm Calm - N/A   Overcast
8:53 AM 61.0 °F 57.9 °F 90% 29.65 in 10.0 mi SW 3.5 mph - N/A   Overcast
9:53 AM 62.1 °F 57.9 °F 86% 29.64 in 10.0 mi Calm Calm - N/A   Overcast
10:48 AM 62.6 °F 59.0 °F 88% 29.66 in 5.0 mi WSW 3.5 mph - 0.00 in Rain Light Rain
10:53 AM 63.0 °F 59.0 °F 87% 29.66 in 6.0 mi SSW 4.6 mph - 0.00 in Rain Light Rain
11:01 AM 62.6 °F 59.0 °F 88% 29.66 in 6.0 mi SW 4.6 mph - 0.00 in Rain Light Rain
11:30 AM 62.6 °F 59.0 °F 88% 29.66 in 6.0 mi SW 3.5 mph - 0.01 in Rain Light Rain
11:53 AM 63.0 °F 59.0 °F 87% 29.66 in 10.0 mi Calm Calm - 0.01 in Rain Light Rain
12:14 PM 62.6 °F 59.0 °F 88% 29.66 in 10.0 mi Calm Calm - 0.00 in   Overcast
12:21 PM 64.4 °F 59.0 °F 83% 29.66 in 10.0 mi Calm Calm - 0.00 in   Overcast
12:38 PM 64.4 °F 60.8 °F 88% 29.66 in 10.0 mi SW 3.5 mph - 0.00 in   Overcast
12:53 PM 66.0 °F 59.0 °F 78% 29.65 in 10.0 mi WSW 3.5 mph - 0.00 in   Mostly Cloudy
1:15 PM 69.8 °F 59.0 °F 68% 29.65 in 10.0 mi Calm Calm - N/A   Mostly Cloudy
1:53 PM 69.1 °F 55.9 °F 63% 29.65 in 10.0 mi Variable 3.5 mph - N/A   Mostly Cloudy
2:07 PM 71.6 °F 55.4 °F 57% 29.65 in 10.0 mi SW 6.9 mph - N/A   Mostly Cloudy
2:53 PM 71.1 °F 54.0 °F 55% 29.65 in 10.0 mi North 5.8 mph - N/A   Mostly Cloudy
3:53 PM 68.0 °F 57.0 °F 68% 29.66 in 10.0 mi NNW 3.5 mph - 0.00 in Rain Light Rain
4:53 PM 64.9 °F 61.0 °F 87% 29.67 in 10.0 mi North 4.6 mph - 0.01 in Rain Light Rain
5:53 PM 66.0 °F 60.1 °F 81% 29.68 in 10.0 mi Calm Calm - 0.00 in   Overcast
6:53 PM 63.0 °F 60.1 °F 90% 29.70 in 10.0 mi SW 8.1 mph - 0.01 in Rain Light Rain
7:13 PM 62.6 °F 59.0 °F 88% 29.70 in 10.0 mi SW 8.1 mph - 0.00 in Rain Light Rain
7:53 PM 62.1 °F 59.0 °F 90% 29.71 in 10.0 mi West 3.5 mph - 0.00 in   Overcast
7:57 PM 60.8 °F 59.0 °F 94% 29.71 in 10.0 mi West 3.5 mph - N/A   Overcast
8:53 PM 61.0 °F 59.0 °F 93% 29.72 in 4.0 mi Calm Calm - 0.05 in Rain Rain
9:45 PM 60.8 °F 59.0 °F 94% 29.74 in 10.0 mi Calm Calm - 0.02 in Rain Light Rain
9:53 PM 61.0 °F 59.0 °F 93% 29.74 in 8.0 mi Calm Calm - 0.02 in   Overcast
10:10 PM 60.8 °F 59.0 °F 94% 29.75 in 10.0 mi ENE 3.5 mph - N/A   Overcast
10:29 PM 60.8 °F 57.2 °F 88% 29.76 in 2.5 mi NNE 8.1 mph - 0.05 in Rain Heavy Rain
10:53 PM 59.0 °F 57.0 °F 93% 29.77 in 3.0 mi NE 5.8 mph - 0.14 in Rain Heavy Rain
11:18 PM 59.0 °F 55.4 °F 88% 29.78 in 6.0 mi NE 6.9 mph - 0.05 in Rain Rain
11:47 PM 59.0 °F 57.2 °F 94% 29.79 in 5.0 mi NNE 3.5 mph - 0.13 in Rain Rain
11:53 PM 59.0 °F 57.0 °F 93% 29.80 in 5.0 mi NNE 4.6 mph - 0.14 in Rain Rain